Location: Unspecified
(51.0000°N, 12.0000°E)
Time: 00:19:24
(UTC+01:00)

OTV 5 (USA 277) - Visible Passes

Search period start: 20 January 2018 00:00
Search period end: 30 January 2018 00:00
Orbit: 404 x 417 km, 43.0° (Epoch: 07 September)

Date Brightness Start Highest point End Pass type
(mag) Time Alt. Az. Time Alt. Az. Time Alt. Az.
25 Jan ? 19:12:37 10° SSW 19:13:52 15° S 19:13:52 15° S visible
26 Jan ? 18:22:06 10° SSW 18:23:59 14° SSE 18:25:15 12° SE visible
26 Jan ? 19:57:59 10° SW 19:58:01 10° SW 19:58:01 10° SW visible
27 Jan ? 17:31:54 10° S 17:33:08 12° SSE 17:34:22 10° SE visible
27 Jan ? 19:07:07 10° SW 19:09:24 20° S 19:09:24 20° S visible
28 Jan ? 18:16:19 10° SW 18:18:47 19° S 18:20:46 12° SE visible
28 Jan ? 19:52:57 10° WSW 19:53:32 13° SW 19:53:32 13° SW visible
29 Jan ? 19:01:56 10° SW 19:04:33 21° S 19:04:55 20° S visible
